Tracking 20942 objects as of 4-Jul-2020
HD Live streaming from Space Station
objects crossing your sky now

FLOCK 4P 1

Track FLOCK 4P 1 now!
10-day predictions
FLOCK 4P 1 is classified as:


NORAD ID: 44814
Int'l Code: 2019-081L
Perigee: 505.2 km
Apogee: 521.5 km
Inclination: 97.5 °
Period: 94.7 minutes
Semi major axis: 6884 km
RCS: Unknown
Launch date: November 27, 2019
Source: United States (US)
Launch site: SRIHARIKOTA (SRI)
aabbcc
Your satellite tracking list
Your tracking list is empty




NASA's NSSDC Master Catalog

Two Line Element Set (TLE):
1 44814U 19081L   20185.86269108 +.00000640 +00000-0 +33021-4 0  9999
2 44814 097.4953 246.7576 0011865 184.2836 175.8299 15.19873055033360
Source of the keplerian elements: AFSPC